Location: Newark
(41.0400°S, 62.7845°W)
Time: 00:04:58
(UTC+00:00)

Courier 1B Rocket - Pass Details

Date: 09 December 2021
Orbit: 920 x 1202 km, 28.2° (Epoch: 20 January)

Event Time Altitude Azimuth Distance (km) Brightness Sun altitude
Rises 12:53:30 0° 308° (NW) 3,800 7.8 46.4°
Reaches altitude 10° 12:56:37 10° 320° (NW) 2,897 7.4 47.0°
Maximum altitude 13:02:18 26° 13° (NNE) 2,049 7.3 48.1°
Drops below altitude 10° 13:08:16 10° 65° (ENE) 3,062 8.5 49.2°
Sets 13:11:40 0° 77° (ENE) 4,058 8.9 49.8°
